Fond du Lac, WI

9:28 PM CDT on June 28, 2017 (GMT -0500)
Fond du Lac County

Weather History for KFLD - February, 2013

Change the Weather History Date:

Wednesday, February 27, 2013

  Actual Average Record
Temperature  
Mean Temperature 30 °F -  
Max Temperature 32 °F 34 °F 54 °F (2016)
Min Temperature 28 °F 18 °F -9 °F (2014)
Degree Days  
Heating Degree Days 35    
Moisture  
Dew Point 27 °F    
Average Humidity 87    
Maximum Humidity 93    
Minimum Humidity 80    
Precipitation  
Precipitation 0.03 in - - ()
Sea Level Pressure  
Sea Level Pressure 29.68 in    
Wind  
Wind Speed 19 mph (North)    
Max Wind Speed 26 mph    
Max Gust Speed 34 mph    
Visibility 4 miles    
Events Snow    
Averages and records for this station are not official NWS values.
T = Trace of Precipitation, MM = Missing Value Source: NWS Daily Summary

Daily Weather History Graph

Daily Weather History Graph

Search for Another Location

Airport or City:

Trip Planner

Search our weather history database for the weather conditions in past years. The results will help you decide how hot, cold, wet, or windy it might be!

Date:

Astronomy

Feb. 27, 2013 Rise Set
Actual Time 6:33 AM CST 5:40 PM CST
Civil Twilight 6:04 AM CST 6:09 PM CST
Nautical Twilight 5:31 AM CST 6:42 PM CST
Astronomical Twilight 4:58 AM CST 7:15 PM CST
Moon 8:08 PM CST (2/27) 7:03 AM CST (2/27)
Length of Visible Light 12h 04m
Length of Day
11h 06m
Waning Gibbous, 96% of the Moon is Illuminated
Feb 27
Waning Gibbous
Mar 4
Last Quarter
Mar 11
New
Mar 19
First Quarter
Mar 27
Full

Hourly Weather History & Observations

Time (CST) Temp. Windchill Dew Point Humidity Pressure Visibility Wind Dir Wind Speed Gust Speed Precip Events Conditions
12:53 AM 28.9 °F 17.7 °F 26.1 °F 89% 29.68 in 1.2 mi North 15.0 mph - 0.01 in Snow Light Snow
1:35 AM 28.4 °F 14.4 °F 24.8 °F 86% 29.66 in 1.2 mi NNE 23.0 mph 26.5 mph 0.00 in Snow Light Snow
1:45 AM 28.4 °F 14.7 °F 24.8 °F 86% 29.66 in 1.2 mi NNE 21.9 mph 32.2 mph 0.00 in Snow Light Snow
1:53 AM 28.0 °F 14.9 °F 25.0 °F 88% 29.68 in 1.5 mi NNE 19.6 mph 31.1 mph 0.00 in Snow Light Snow
2:01 AM 28.4 °F 15.4 °F 24.8 °F 86% 29.65 in 2.0 mi NNE 19.6 mph 28.8 mph 0.00 in Snow Light Snow
2:11 AM 28.4 °F 15.1 °F 24.8 °F 86% 29.65 in 2.5 mi NNE 20.7 mph 29.9 mph 0.00 in Snow Light Snow
2:53 AM 28.0 °F 14.6 °F 25.0 °F 88% 29.67 in 2.5 mi NNE 20.7 mph 26.5 mph 0.00 in Snow Light Snow
3:20 AM 28.4 °F 14.4 °F 24.8 °F 86% 29.64 in 1.5 mi North 23.0 mph 32.2 mph 0.00 in Snow Light Snow
3:37 AM 28.4 °F 13.5 °F 24.8 °F 86% 29.64 in 1.8 mi NNE 26.5 mph 33.4 mph 0.00 in Snow Light Snow
3:48 AM 28.4 °F 15.1 °F 24.8 °F 86% 29.64 in 2.0 mi North 20.7 mph 31.1 mph 0.00 in Snow Light Snow
3:53 AM 28.0 °F 14.3 °F 25.0 °F 88% 29.67 in 1.8 mi NNE 21.9 mph 29.9 mph 0.00 in Snow Light Snow
4:12 AM 28.4 °F 15.1 °F 24.8 °F 86% 29.64 in 1.5 mi NNE 20.7 mph 31.1 mph 0.00 in Snow Light Snow
4:43 AM 28.4 °F 14.4 °F 24.8 °F 86% 29.64 in 2.0 mi NNE 23.0 mph 34.5 mph 0.00 in Snow Light Snow
4:53 AM 28.0 °F 14.6 °F 25.0 °F 88% 29.67 in 2.5 mi NNE 20.7 mph 34.5 mph 0.00 in Snow Light Snow
5:15 AM 28.4 °F 14.1 °F 24.8 °F 86% 29.63 in 4.0 mi NNE 24.2 mph - 0.00 in Snow Light Snow
5:32 AM 28.4 °F 15.8 °F 24.8 °F 86% 29.63 in 2.5 mi North 18.4 mph - 0.00 in Snow Light Snow
5:51 AM 28.4 °F 14.7 °F 24.8 °F 86% 29.63 in 1.5 mi NNE 21.9 mph 29.9 mph 0.00 in Snow Light Snow
5:53 AM 28.0 °F 14.6 °F 25.0 °F 88% 29.66 in 1.5 mi NNE 20.7 mph 29.9 mph 0.00 in Snow Light Snow
6:16 AM 28.4 °F 14.4 °F 24.8 °F 86% 29.63 in 1.8 mi NNE 23.0 mph - 0.00 in Snow Light Snow
6:25 AM 28.4 °F 14.4 °F 24.8 °F 86% 29.63 in 1.8 mi NNE 23.0 mph 28.8 mph 0.00 in Snow Light Snow
6:49 AM 28.4 °F 14.7 °F 24.8 °F 86% 29.63 in 2.5 mi NNE 21.9 mph 27.6 mph 0.00 in Snow Light Snow
6:53 AM 28.0 °F 14.3 °F 25.0 °F 88% 29.66 in 3.0 mi NNE 21.9 mph 27.6 mph 0.00 in Snow Light Snow
7:26 AM 28.4 °F 15.1 °F 24.8 °F 86% 29.64 in 2.5 mi NNE 20.7 mph 27.6 mph 0.00 in Snow Light Snow
7:33 AM 28.4 °F 16.2 °F 24.8 °F 86% 29.64 in 3.0 mi North 17.3 mph 27.6 mph 0.00 in Snow Light Snow
7:53 AM 28.9 °F 16.5 °F 25.0 °F 85% 29.67 in 4.0 mi NNE 18.4 mph 28.8 mph 0.01 in Snow Light Snow
8:06 AM 28.4 °F 15.4 °F 26.6 °F 93% 29.64 in 2.0 mi NNE 19.6 mph 28.8 mph 0.00 in Snow Light Snow
8:23 AM 28.4 °F 15.4 °F 26.6 °F 93% 29.65 in 1.8 mi NNE 19.6 mph - 0.00 in Snow Light Snow
8:32 AM 28.4 °F 16.2 °F 26.6 °F 93% 29.64 in 1.2 mi NNE 17.3 mph 27.6 mph 0.00 in Snow Light Snow
9:14 AM 30.2 °F 17.8 °F 26.6 °F 86% 29.64 in 2.0 mi NNE 19.6 mph 28.8 mph 0.01 in Snow Light Snow
9:32 AM 30.2 °F 17.8 °F 26.6 °F 86% 29.65 in 3.0 mi NNE 19.6 mph 26.5 mph 0.01 in Snow Light Snow
9:53 AM 30.0 °F 16.6 °F 26.1 °F 85% 29.67 in 8.0 mi NNE 23.0 mph 27.6 mph 0.01 in   Overcast
10:53 AM 30.0 °F 17.2 °F 26.1 °F 85% 29.68 in 6.0 mi NNE 20.7 mph - 0.00 in   Overcast
11:53 AM 30.0 °F 16.9 °F 26.1 °F 85% 29.68 in 8.0 mi NNE 21.9 mph - 0.00 in Snow Light Snow
12:17 PM 30.2 °F 18.1 °F 26.6 °F 86% 29.64 in 2.5 mi NNE 18.4 mph 28.8 mph 0.00 in Snow Light Snow
12:45 PM 30.2 °F 17.1 °F 26.6 °F 86% 29.64 in 1.5 mi NNE 21.9 mph - 0.00 in Snow Light Snow
12:53 PM 30.9 °F 18.7 °F 27.0 °F 85% 29.67 in 0.8 mi North 19.6 mph 28.8 mph 0.00 in Snow Light Snow
1:18 PM 30.2 °F 17.4 °F 26.6 °F 86% 29.64 in 1.8 mi North 20.7 mph 26.5 mph 0.00 in Snow Light Snow
1:24 PM 30.2 °F 17.4 °F 26.6 °F 86% 29.64 in 3.0 mi North 20.7 mph 28.8 mph 0.00 in Snow Light Snow
1:35 PM 30.2 °F 17.1 °F 26.6 °F 86% 29.65 in 4.0 mi North 21.9 mph 29.9 mph 0.00 in Snow Light Snow
1:53 PM 30.9 °F 18.7 °F 27.0 °F 85% 29.67 in 7.0 mi North 19.6 mph - 0.00 in   Overcast
2:53 PM 32.0 °F 19.8 °F 27.0 °F 82% 29.69 in 9.0 mi North 20.7 mph 27.6 mph N/A   Overcast
3:53 PM 30.9 °F 20.2 °F 27.0 °F 85% 29.71 in 9.0 mi North 15.0 mph - 0.00 in   Overcast
4:53 PM 32.0 °F 21.2 °F 27.0 °F 82% 29.73 in 10.0 mi North 16.1 mph - N/A   Overcast
5:37 PM 32.0 °F 22.1 °F 26.6 °F 80% 29.71 in 1.8 mi North 13.8 mph 20.7 mph 0.00 in Snow Light Snow
5:42 PM 32.0 °F 22.1 °F 28.4 °F 87% 29.71 in 1.0 mi North 13.8 mph 20.7 mph 0.00 in Snow Light Snow
5:49 PM 30.2 °F 19.8 °F 28.4 °F 93% 29.71 in 1.0 mi North 13.8 mph - 0.00 in Snow Light Snow
5:53 PM 30.9 °F 21.2 °F 28.9 °F 92% 29.75 in 1.5 mi North 12.7 mph - 0.00 in Snow Light Snow
5:57 PM 30.2 °F 20.2 °F 28.4 °F 93% 29.71 in 2.0 mi North 12.7 mph - 0.00 in Snow Light Snow
6:02 PM 30.2 °F 19.3 °F 28.4 °F 93% 29.71 in 3.0 mi North 15.0 mph - 0.00 in Snow Light Snow
6:14 PM 32.0 °F 22.5 °F 28.4 °F 87% 29.72 in 2.5 mi North 12.7 mph - 0.00 in Snow Light Snow
6:22 PM 32.0 °F 23.0 °F 28.4 °F 87% 29.72 in 4.0 mi North 11.5 mph - 0.00 in Snow Light Snow
6:39 PM 32.0 °F 22.1 °F 28.4 °F 87% 29.73 in 4.0 mi North 13.8 mph - 0.00 in Snow Light Snow
6:53 PM 32.0 °F 23.6 °F 28.9 °F 88% 29.76 in 4.0 mi North 10.4 mph - 0.00 in Snow Light Snow
7:04 PM 32.0 °F 23.0 °F 28.4 °F 87% 29.73 in 2.0 mi North 11.5 mph - 0.00 in Snow Light Snow
7:23 PM 32.0 °F 22.1 °F 28.4 °F 87% 29.73 in 4.0 mi North 13.8 mph - 0.00 in Snow Light Snow
7:43 PM 32.0 °F 21.6 °F 28.4 °F 87% 29.73 in 4.0 mi North 15.0 mph - 0.00 in Snow Light Snow
8:01 PM 32.0 °F 22.1 °F 28.4 °F 87% 29.74 in 5.0 mi North 13.8 mph 21.9 mph 0.00 in Snow Light Snow
8:11 PM 32.0 °F 21.6 °F 28.4 °F 87% 29.74 in 5.0 mi North 15.0 mph - 0.00 in   Overcast
8:18 PM 32.0 °F 21.2 °F 28.4 °F 87% 29.74 in 6.0 mi North 16.1 mph - 0.00 in   Overcast
8:34 PM 30.2 °F 19.8 °F 28.4 °F 93% 29.75 in 5.0 mi North 13.8 mph - 0.00 in   Overcast
8:53 PM 32.0 °F 22.1 °F 28.0 °F 85% 29.78 in 9.0 mi North 13.8 mph - 0.00 in   Overcast
9:53 PM 32.0 °F 21.6 °F 28.0 °F 85% 29.79 in 10.0 mi North 15.0 mph - N/A   Overcast
10:53 PM 32.0 °F 21.6 °F 28.0 °F 85% 29.79 in 10.0 mi North 15.0 mph - N/A   Overcast
11:53 PM 32.0 °F 21.6 °F 28.9 °F 88% 29.80 in 9.0 mi North 15.0 mph - N/A   Overcast